Location: Girdwood
(60.9430°N, 149.1660°W)
Time: 10:21:52
(UTC-08:00)

Amateur Radio Satellites - All Passes

Search period start: 23 September 2017 09:51
Search period end: 24 September 2017 09:51
Location: Girdwood, 60.9430°N, 149.1660°W

Satellite Date Start Highest point End Downlink Frequencies (MHz)
Time Altitude Azimuth
XW-2B 23 Sep 09:57:41 10:00:46 23° 305° (NW) 10:03:51 145.730 - 145.750
XW-2F 23 Sep 09:57:56 10:01:03 24° 304° (NW) 10:04:07 145.980 - 146.000
DOVE 4 23 Sep 09:59:50 10:02:07 15° 316° (NW) 10:04:27 437.250
O/OREOS (USA 219) 23 Sep 10:02:12 10:06:01 25° 19° (NNE) 10:09:52 437.305
TIGRISAT 23 Sep 10:02:46 10:07:03 53° 64° (ENE) 10:11:29 435.000
SEEDS 23 Sep 10:18:33 10:22:45 67° 292° (WNW) 10:26:54 437.485
XW-2C 23 Sep 10:19:21 10:21:57 17° 310° (NW) 10:24:31 145.795 - 145.815
DUCHIFAT 1 23 Sep 10:21:11 10:22:52 12° 39° (NE) 10:24:33 145.980
NUDT-PHONESAT 23 Sep 10:22:32 10:25:15 19° 308° (NW) 10:27:56 437.300
STRAND 1 23 Sep 10:23:38 10:26:03 13° 281° (W) 10:28:31 437.568
Oscar 11 23 Sep 10:28:26 10:32:37 43° 98° (E) 10:36:47 .
AO-73 23 Sep 10:28:50 10:33:22 57° 101° (E) 10:37:54 145.935
ZACube-1 23 Sep 10:31:29 10:36:05 65° 103° (ESE) 10:40:40 437.345
LilacSat-2 23 Sep 10:31:33 10:33:45 15° 313° (NW) 10:35:56 437.200
POLYITAN 1 23 Sep 10:33:20 10:35:55 16° 44° (NE) 10:38:31 437.675
EO-79 23 Sep 10:37:33 10:40:14 17° 45° (NE) 10:42:56 145.935-145.965
DELFI C3 23 Sep 10:38:44 10:41:30 18° 88° (E) 10:44:14 145.870
XW-2A 23 Sep 10:40:46 10:44:07 48° 294° (WNW) 10:47:27 145.665 - 145.685
AAUSAT CUBESAT 2 23 Sep 10:42:07 10:46:16 77° 291° (WNW) 10:50:23 437.432
PRISM 23 Sep 10:42:33 10:46:38 73° 69° (ENE) 10:50:44 437.425
CUTE 1.7 + AOD 2 23 Sep 10:46:16 10:50:07 33° 301° (WNW) 10:53:55 437.475
M-CUBED/EXP-1 PRIME 23 Sep 10:48:55 10:51:25 16° 39° (NE) 10:53:50 437.505
QB50P2 23 Sep 10:50:27 10:53:36 20° 49° (NE) 10:56:45 145.880/145.840
KAITUO 1B 23 Sep 10:51:14 10:53:01 13° 315° (NW) 10:54:48 145.475/437.950
HO-68 23 Sep 10:52:00 10:59:04 61° 303° (WNW) 11:06:07 435.675
AO-7 23 Sep 11:05:46 11:12:03 25° 358° (N) 11:18:19 .
CUBEBUG 2 23 Sep 11:12:20 11:16:33 35° 302° (WNW) 11:20:50 437.445
EO-88 23 Sep 11:13:09 11:16:01 21° 91° (E) 11:18:52 145.990 - 145.960
AIST 2D 23 Sep 11:14:11 11:17:30 37° 63° (ENE) 11:20:49 435.315
UNISAT 6 23 Sep 11:15:48 11:20:02 45° 261° (W) 11:24:25 437.425
UWE-3 23 Sep 11:19:41 11:24:04 43° 299° (WNW) 11:28:29 435.000/436.395/437.385
YUBILEINY 23 Sep 11:22:46 11:27:51 17° 62° (ENE) 11:32:56 435.215
NANOSAT C BR1 23 Sep 11:25:28 11:29:06 29° 55° (NE) 11:32:46 145.865
CUTE-I 23 Sep 11:26:08 11:29:44 19° 322° (NW) 11:33:21 437.470
RS-15 23 Sep 11:28:49 11:41:15 74° 359° (N) 11:53:15 29.354- 29.394
Gurwin Techsat 1B 23 Sep 11:33:11 11:35:57 14° 31° (NNE) 11:38:45 435.225
FO-29 23 Sep 11:35:39 11:39:44 21° 273° (W) 11:43:41 435.910
TIGRISAT 23 Sep 11:40:00 11:44:00 33° 266° (W) 11:48:07 435.000
O/OREOS (USA 219) 23 Sep 11:41:48 11:46:20 55° 43° (NE) 11:50:53 437.305
Max Valier Satellite 23 Sep 11:45:06 11:48:46 47° 100° (E) 11:52:24 145.860
Oscar 19 23 Sep 11:48:51 11:52:22 19° 39° (NE) 11:55:53 437.125/150
DUCHIFAT 1 23 Sep 11:53:38 11:57:34 40° 61° (ENE) 12:01:32 145.980
SEEDS 23 Sep 11:55:01 11:57:48 17° 313° (NW) 12:00:33 437.485
Oscar 11 23 Sep 12:04:41 12:08:47 40° 299° (WNW) 12:12:50 .
AO-73 23 Sep 12:05:20 12:09:27 34° 303° (WNW) 12:13:34 145.935
POLYITAN 1 23 Sep 12:06:48 12:10:57 57° 65° (ENE) 12:15:10 437.675
ZACube-1 23 Sep 12:08:06 12:12:08 31° 304° (NW) 12:16:10 437.345
LO-87 23 Sep 12:10:33 12:12:46 15° 87° (E) 12:15:01 145.935 - 145.965
EO-79 23 Sep 12:11:08 12:15:18 62° 67° (ENE) 12:19:31 145.935-145.965
DELFI C3 23 Sep 12:12:51 12:16:48 83° 288° (WNW) 12:20:43 145.870
XW-2A 23 Sep 12:15:06 12:16:06 11° 315° (NW) 12:17:06 145.665 - 145.685
AAUSAT CUBESAT 2 23 Sep 12:18:17 12:21:10 19° 311° (NW) 12:24:02 437.432
PRISM 23 Sep 12:19:10 12:22:22 22° 269° (W) 12:25:35 437.425
M-CUBED/EXP-1 PRIME 23 Sep 12:21:19 12:25:19 58° 58° (ENE) 12:29:03 437.505
CUTE 1.7 + AOD 2 23 Sep 12:24:01 12:24:51 10° 323° (NW) 12:25:41 437.475
QB50P2 23 Sep 12:24:37 12:28:52 82° 70° (ENE) 12:33:09 145.880/145.840
BUGSAT 1 23 Sep 12:30:06 12:33:42 31° 57° (ENE) 12:37:20 437.445
ESTCUBE 1 23 Sep 12:34:29 12:37:58 21° 88° (E) 12:41:26 437.505/2401.250
HO-68 23 Sep 12:39:56 12:45:44 28° 327° (NNW) 12:51:33 435.675
EO-88 23 Sep 12:46:23 12:50:02 63° 291° (WNW) 12:53:40 145.990 - 145.960
AIST 2D 23 Sep 12:47:28 12:50:45 34° 264° (W) 12:54:02 435.315
CUBEBUG 2 23 Sep 12:50:17 12:52:04 12° 323° (NW) 12:53:51 437.445
AO-7 23 Sep 12:55:46 13:02:43 31° 25° (NNE) 13:09:39 .
ITAMSAT 1 23 Sep 12:55:48 12:57:38 12° 24° (NNE) 12:59:28 435.822/435.867
UWE-3 23 Sep 12:57:12 12:59:33 14° 320° (NW) 13:01:55 435.000/436.395/437.385
NANOSAT C BR1 23 Sep 13:00:24 13:04:35 63° 256° (WSW) 13:08:49 145.865
SPROUT 23 Sep 13:05:25 13:07:39 14° 83° (E) 13:09:53 437.525
VELOX 1 23 Sep 13:05:44 13:06:56 11° 80° (E) 13:08:08 145.980
Gurwin Techsat 1B 23 Sep 13:09:50 13:14:39 36° 54° (NE) 13:19:28 435.225
YUBILEINY 23 Sep 13:14:19 13:22:34 51° 88° (E) 13:30:50 435.215
Max Valier Satellite 23 Sep 13:19:10 13:22:29 30° 301° (WNW) 13:25:47 145.860
O/OREOS (USA 219) 23 Sep 13:21:24 13:25:42 40° 245° (WSW) 13:30:00 437.305
Oscar 19 23 Sep 13:25:43 13:30:47 53° 61° (ENE) 13:35:51 437.125/150
DUCHIFAT 1 23 Sep 13:29:17 13:33:16 41° 262° (W) 13:37:19 145.980
Oscar 11 23 Sep 13:42:06 13:43:56 12° 321° (NW) 13:45:45 .
RS-15 23 Sep 13:42:17 13:54:39 90° 206° (SSW) 14:06:24 29.354- 29.394
AO-73 23 Sep 13:43:00 13:44:33 12° 324° (NW) 13:46:05 145.935
LO-87 23 Sep 13:43:07 13:46:44 87° 286° (WNW) 13:50:21 145.935 - 145.965
POLYITAN 1 23 Sep 13:43:21 13:47:02 29° 267° (W) 13:50:46 437.675
ZACube-1 23 Sep 13:46:06 13:47:12 11° 326° (NW) 13:48:18 437.345
EO-79 23 Sep 13:47:50 13:51:25 26° 268° (W) 13:55:03 145.935-145.965
DELFI C3 23 Sep 13:48:18 13:51:04 19° 309° (NW) 13:53:48 145.870
M-CUBED/EXP-1 PRIME 23 Sep 13:56:26 13:59:59 27° 257° (WSW) 14:03:19 437.505
QB50P2 23 Sep 14:02:02 14:05:13 20° 272° (W) 14:08:25 145.880/145.840
BUGSAT 1 23 Sep 14:04:56 14:08:55 53° 258° (WSW) 14:12:58 437.445
ESTCUBE 1 23 Sep 14:10:49 14:15:22 83° 289° (WNW) 14:19:52 437.505/2401.250
DX 1 23 Sep 14:14:12 14:16:28 14° 83° (E) 14:18:43 434.975-435.025
EO-88 23 Sep 14:21:02 14:23:04 14° 312° (NW) 14:25:06 145.990 - 145.960
HO-68 23 Sep 14:26:57 14:31:28 18° 353° (N) 14:36:00 435.675
ITAMSAT 1 23 Sep 14:31:21 14:35:39 27° 47° (NE) 14:39:58 435.822/435.867
NANOSAT C BR1 23 Sep 14:39:13 14:41:11 13° 278° (W) 14:43:10 145.865
SPROUT 23 Sep 14:40:07 14:44:24 66° 103° (ESE) 14:48:41 437.525
VELOX 1 23 Sep 14:40:08 14:44:27 51° 101° (ESE) 14:48:44 145.980
AO-7 23 Sep 14:46:07 14:54:14 59° 51° (NE) 15:02:20 .
Gurwin Techsat 1B 23 Sep 14:49:06 14:54:24 67° 255° (WSW) 14:59:44 435.225
NO-84 23 Sep 15:03:13 15:04:18 11° 145° (SE) 15:05:21 435.350 FM
Oscar 19 23 Sep 15:05:23 15:10:18 41° 263° (W) 15:15:14 437.125/150
50 SAT 23 Sep 15:08:47 15:11:54 36° 99° (E) 15:14:59 437.505
YUBILEINY 23 Sep 15:10:42 15:19:19 63° 294° (WNW) 15:28:00 435.215
LO-87 23 Sep 15:17:16 15:19:42 17° 308° (NW) 15:22:07 145.935 - 145.965
SO-50 23 Sep 15:28:01 15:31:09 19° 120° (ESE) 15:34:18 436.795
PCSat 23 Sep 15:32:50 15:36:21 18° 109° (ESE) 15:39:54 145.827
UKube-1 23 Sep 15:42:22 15:46:30 43° 99° (E) 15:50:37 .
BUGSAT 1 23 Sep 15:44:22 15:45:16 11° 280° (W) 15:46:10 437.445
ESTCUBE 1 23 Sep 15:48:11 15:51:39 22° 311° (NW) 15:55:06 437.505/2401.250
DX 1 23 Sep 15:49:11 15:53:31 65° 104° (ESE) 15:57:50 434.975-435.025
RS-15 23 Sep 15:54:59 16:06:21 50° 240° (WSW) 16:17:12 29.354- 29.394
ITUPSAT 1 23 Sep 15:56:27 15:59:13 15° 83° (E) 16:01:58 437.325
ITAMSAT 1 23 Sep 16:09:26 16:14:38 89° 68° (ENE) 16:19:52 435.822/435.867
HO-68 23 Sep 16:12:00 16:16:58 21° 19° (NNE) 16:21:56 435.675
SPROUT 23 Sep 16:16:23 16:20:04 28° 305° (NW) 16:23:44 437.525
VELOX 1 23 Sep 16:16:49 16:20:50 35° 302° (WNW) 16:24:49 145.980
CUTE-I 23 Sep 16:20:43 16:24:01 17° 35° (NE) 16:27:19 437.470
DOVE 4 23 Sep 16:22:33 16:25:45 21° 51° (NE) 16:28:54 437.250
XW-2C 23 Sep 16:30:39 16:31:29 11° 41° (NE) 16:32:19 145.795 - 145.815
Gurwin Techsat 1B 23 Sep 16:31:56 16:35:23 17° 277° (W) 16:38:52 435.225
BEESAT 23 Sep 16:32:28 16:36:29 26° 91° (E) 16:40:29 436.000
NO-84 23 Sep 16:37:59 16:40:52 24° 165° (SSE) 16:43:34 435.350 FM
AO-7 23 Sep 16:38:58 16:47:11 59° 255° (WSW) 16:55:24 .
50 SAT 23 Sep 16:41:23 16:44:22 31° 299° (WNW) 16:47:20 437.505
LilacSat-2 23 Sep 16:41:50 16:43:36 13° 45° (NE) 16:45:24 437.200
KAITUO 1B 23 Sep 16:59:55 17:01:46 13° 46° (NE) 17:03:36 145.475/437.950
MOZHAYETS 4 23 Sep 17:03:41 17:08:08 42° 97° (E) 17:12:34
SO-50 23 Sep 17:06:27 17:10:54 62° 142° (SE) 17:15:24 436.795
YUBILEINY 23 Sep 17:10:58 17:18:10 28° 323° (NW) 17:25:25 435.215
PCSat 23 Sep 17:13:29 17:18:49 59° 131° (SE) 17:24:10 145.827
UKube-1 23 Sep 17:18:31 17:22:34 40° 300° (WNW) 17:26:36 .
DX 1 23 Sep 17:25:43 17:29:28 29° 306° (NW) 17:33:12 434.975-435.025
XW-2D 23 Sep 17:28:07 17:31:12 23° 55° (NE) 17:34:18 145.860 - 145.880
CUBESAT XI-V 23 Sep 17:30:17 17:34:05 24° 89° (E) 17:37:50 437.345
ITUPSAT 1 23 Sep 17:33:13 17:38:02 63° 104° (ESE) 17:42:49 437.325
CUBEBUG 2 23 Sep 17:34:45 17:35:53 11° 34° (NE) 17:37:03 437.445
XW-2F 23 Sep 17:40:12 17:43:27 26° 57° (ENE) 17:46:41 145.980 - 146.000
XW-2B 23 Sep 17:40:12 17:43:29 27° 57° (ENE) 17:46:47 145.730 - 145.750
ITAMSAT 1 23 Sep 17:50:41 17:54:48 23° 271° (W) 17:58:57 435.822/435.867
VELOX 1 23 Sep 17:54:39 17:56:12 12° 324° (NW) 17:57:46 145.980
HO-68 23 Sep 17:56:36 18:03:03 38° 44° (NE) 18:09:32 435.675
CUTE-I 23 Sep 17:57:59 18:03:00 45° 58° (ENE) 18:08:03 437.470
DOVE 4 23 Sep 17:58:44 18:03:03 90° 263° (W) 18:07:15 437.250
XW-2C 23 Sep 18:01:09 18:04:45 38° 62° (ENE) 18:08:22 145.795 - 145.815
NUDT-PHONESAT 23 Sep 18:03:06 18:06:27 31° 60° (ENE) 18:09:50 437.300
RS-15 23 Sep 18:08:33 18:15:34 18° 268° (W) 18:22:26 29.354- 29.394
BEESAT 23 Sep 18:09:57 18:14:46 75° 292° (WNW) 18:19:34 436.000
SEEDS 23 Sep 18:10:40 18:13:14 16° 45° (NE) 18:15:46 437.485
LilacSat-2 23 Sep 18:13:20 18:17:06 49° 66° (ENE) 18:20:54 437.200
NO-84 23 Sep 18:14:43 18:17:41 28° 185° (S) 18:20:27 435.350 FM
XW-2A 23 Sep 18:19:16 18:19:51 10° 44° (NE) 18:20:26 145.665 - 145.685
AO-73 23 Sep 18:26:00 18:27:14 11° 35° (NE) 18:28:28 145.935
ZACube-1 23 Sep 18:28:22 18:30:02 12° 36° (NE) 18:31:42 437.345
KAITUO 1B 23 Sep 18:31:18 18:35:01 53° 67° (ENE) 18:38:45 145.475/437.950
AAUSAT CUBESAT 2 23 Sep 18:33:37 18:35:43 14° 43° (NE) 18:37:49 437.432
AO-7 23 Sep 18:36:08 18:41:54 20° 280° (W) 18:47:42 .
CUTE 1.7 + AOD 2 23 Sep 18:37:21 18:41:02 28° 56° (NE) 18:44:42 437.475
MOZHAYETS 4 23 Sep 18:40:56 18:45:23 44° 299° (WNW) 18:49:48
SO-50 23 Sep 18:46:59 18:51:29 62° 345° (NNW) 18:56:01 436.795
UKube-1 23 Sep 18:55:43 18:57:37 13° 322° (NW) 18:59:32 .
PCSat 23 Sep 18:56:56 19:02:20 61° 335° (NNW) 19:07:45 145.827
KKS-1 23 Sep 18:59:54 19:04:11 45° 100° (E) 19:08:28 437.445
XW-2D 23 Sep 19:01:13 19:05:04 70° 256° (WSW) 19:08:57 145.860 - 145.880
DX 1 23 Sep 19:04:22 19:04:28 10° 328° (NNW) 19:04:35 434.975-435.025
CUBESAT XI-V 23 Sep 19:07:18 19:12:00 77° 290° (WNW) 19:16:37 437.345
CUBEBUG 2 23 Sep 19:07:26 19:11:18 32° 57° (ENE) 19:15:19 437.445
ITUPSAT 1 23 Sep 19:11:20 19:15:40 34° 306° (NW) 19:19:58 437.325
YUBILEINY 23 Sep 19:13:13 19:18:49 18° 355° (N) 19:24:27 435.215
XW-2F 23 Sep 19:13:33 19:17:21 59° 258° (WSW) 19:21:11 145.980 - 146.000
XW-2B 23 Sep 19:13:40 19:17:28 57° 258° (WSW) 19:21:18 145.730 - 145.750
UWE-3 23 Sep 19:14:21 19:18:02 27° 53° (NE) 19:21:50 435.000/436.395/437.385
STARS 23 Sep 19:23:55 19:28:02 37° 97° (E) 19:32:08 437.465
XW-2C 23 Sep 19:35:21 19:38:58 37° 263° (W) 19:42:37 145.795 - 145.815
NUDT-PHONESAT 23 Sep 19:36:37 19:40:14 45° 260° (W) 19:43:55 437.300
CUTE-I 23 Sep 19:37:55 19:43:05 51° 259° (W) 19:48:18 437.470
DOVE 4 23 Sep 19:38:26 19:41:23 18° 273° (W) 19:44:17 437.250
HO-68 23 Sep 19:43:07 19:50:18 87° 250° (WSW) 19:57:33 435.675
SEEDS 23 Sep 19:44:01 19:48:11 58° 67° (ENE) 19:52:21 437.485
LilacSat-2 23 Sep 19:48:10 19:51:35 29° 266° (W) 19:55:02 437.200
BEESAT 23 Sep 19:48:17 19:51:57 22° 314° (NW) 19:55:36 436.000
XW-2A 23 Sep 19:48:30 19:51:48 44° 65° (ENE) 19:55:06 145.665 - 145.685
NO-84 23 Sep 19:52:10 19:54:21 17° 206° (SSW) 19:56:26 435.350 FM
Oscar 11 23 Sep 19:57:39 20:01:17 26° 54° (NE) 20:04:55 .
AO-73 23 Sep 19:58:20 20:02:16 32° 57° (ENE) 20:06:19 145.935
ZACube-1 23 Sep 20:01:09 20:05:12 36° 58° (ENE) 20:09:20 437.345
DELFI C3 23 Sep 20:01:40 20:02:55 11° 41° (NE) 20:04:10 145.870
KAITUO 1B 23 Sep 20:06:01 20:09:15 26° 267° (W) 20:12:32 145.475/437.950
AAUSAT CUBESAT 2 23 Sep 20:06:21 20:10:22 49° 65° (ENE) 20:14:23 437.432
CUTE 1.7 + AOD 2 23 Sep 20:12:21 20:16:38 65° 257° (WSW) 20:20:55 437.475
MOZHAYETS 4 23 Sep 20:19:03 20:21:35 15° 321° (NW) 20:24:05
SO-50 23 Sep 20:27:56 20:32:26 56° 9° (N) 20:36:57 436.795
EO-88 23 Sep 20:29:35 20:30:32 11° 43° (NE) 20:31:30 145.990 - 145.960
KKS-1 23 Sep 20:36:36 20:40:45 40° 301° (WNW) 20:44:54 437.445
XW-2D 23 Sep 20:38:08 20:39:59 13° 277° (W) 20:41:50 145.860 - 145.880
STRAND 1 23 Sep 20:40:37 20:44:59 27° 91° (E) 20:49:20 437.568
PCSat 23 Sep 20:41:17 20:46:31 44° 360° (N) 20:51:45 145.827
CUBEBUG 2 23 Sep 20:43:28 20:47:45 58° 258° (WSW) 20:52:13 437.445
CUBESAT XI-V 23 Sep 20:45:16 20:48:47 21° 312° (NW) 20:52:16 437.345
UWE-3 23 Sep 20:49:45 20:54:08 75° 255° (WSW) 20:58:42 435.000/436.395/437.385
ITUPSAT 1 23 Sep 20:50:16 20:52:18 13° 328° (NNW) 20:54:20 437.325
XW-2F 23 Sep 20:51:12 20:52:18 11° 278° (W) 20:53:25 145.980 - 146.000
XW-2B 23 Sep 20:51:36 20:52:31 11° 279° (W) 20:53:27 145.730 - 145.750
STARS 23 Sep 21:00:16 21:04:31 47° 298° (WNW) 21:08:45 437.465
Max Valier Satellite 23 Sep 21:00:44 21:03:29 20° 53° (NE) 21:06:15 145.860
YUBILEINY 23 Sep 21:13:07 21:19:46 23° 28° (NNE) 21:26:26 435.215
SEEDS 23 Sep 21:20:28 21:24:10 28° 267° (W) 21:27:51 437.485
XW-2A 23 Sep 21:21:42 21:24:40 26° 266° (W) 21:27:40 145.665 - 145.685
CUTE-I 23 Sep 21:22:07 21:24:28 13° 282° (WNW) 21:26:49 437.470
Oscar 11 23 Sep 21:32:43 21:37:05 74° 255° (WSW) 21:41:30 .
HO-68 23 Sep 21:32:56 21:39:02 29° 272° (W) 21:45:11 435.675
DELFI C3 23 Sep 21:33:04 21:36:47 40° 63° (ENE) 21:40:30 145.870
AO-73 23 Sep 21:33:57 21:38:20 59° 258° (WSW) 21:42:49 145.935
ZACube-1 23 Sep 21:37:04 21:41:23 51° 260° (W) 21:45:50 437.345
AAUSAT CUBESAT 2 23 Sep 21:42:15 21:46:01 32° 266° (W) 21:49:46 437.432
CUTE 1.7 + AOD 2 23 Sep 21:51:09 21:53:20 14° 278° (W) 21:55:30 437.475
BEESAT 3 23 Sep 21:58:55 22:02:39 37° 133° (SE) 22:06:25 437.485
EO-88 23 Sep 21:59:52 22:03:22 42° 64° (ENE) 22:06:53 145.990 - 145.960
BEESAT 2 23 Sep 22:07:37 22:10:47 22° 124° (SE) 22:13:58 435.950
SO-50 23 Sep 22:08:36 22:13:10 82° 212° (SSW) 22:17:46 436.795
ESTCUBE 1 23 Sep 22:08:39 22:11:41 18° 44° (NE) 22:14:43 437.505/2401.250
KKS-1 23 Sep 22:14:18 22:16:19 13° 323° (NW) 22:18:22 437.445
STRAND 1 23 Sep 22:19:33 22:24:43 78° 292° (WNW) 22:29:52 437.568
CUBEBUG 2 23 Sep 22:23:31 22:25:25 12° 281° (W) 22:27:20 437.445
PCSat 23 Sep 22:25:18 22:30:43 61° 25° (NNE) 22:36:06 145.827
UWE-3 23 Sep 22:28:38 22:31:26 16° 277° (W) 22:34:16 435.000/436.395/437.385
FO-29 23 Sep 22:30:25 22:35:12 32° 94° (E) 22:40:18 435.910
AO-85 23 Sep 22:32:54 22:36:22 31° 130° (SE) 22:39:58 145.980
Max Valier Satellite 23 Sep 22:33:09 22:36:54 84° 253° (WSW) 22:40:42 145.860
SPROUT 23 Sep 22:35:12 22:36:37 11° 37° (NE) 22:38:02 437.525
STARS 23 Sep 22:37:35 22:39:59 15° 320° (NW) 22:42:23 437.465
VELOX 1 23 Sep 22:38:22 22:39:47 11° 35° (NE) 22:41:12 145.980
LO-87 23 Sep 22:55:35 22:58:43 30° 60° (ENE) 23:01:52 145.935 - 145.965
UNISAT 6 23 Sep 22:56:54 23:00:36 23° 89° (E) 23:04:18 437.425
DELFI C3 23 Sep 23:07:57 23:11:37 36° 263° (W) 23:15:18 145.870
YUBILEINY 23 Sep 23:10:47 23:19:13 49° 58° (ENE) 23:27:38 435.215
Oscar 11 23 Sep 23:11:20 23:14:00 16° 276° (W) 23:16:42 .
AO-73 23 Sep 23:13:31 23:15:34 13° 280° (W) 23:17:39 145.935
ZACube-1 23 Sep 23:17:20 23:18:47 11° 282° (WNW) 23:20:13 437.345
TIGRISAT 23 Sep 23:20:19 23:24:26 30° 93° (E) 23:28:35 435.000
Tancredo 1 23 Sep 23:20:37 23:21:45 12° 174° (S) 23:22:53 437.200
EO-88 23 Sep 23:33:49 23:37:09 31° 265° (W) 23:40:29 145.990 - 145.960
BEESAT 3 23 Sep 23:36:00 23:40:04 75° 335° (NNW) 23:44:08 437.485
UKube-1 23 Sep 23:39:48 23:40:02 10° 32° (NNE) 23:40:16 .
ESTCUBE 1 23 Sep 23:43:17 23:47:46 62° 66° (ENE) 23:52:15 437.505/2401.250
BEESAT 2 23 Sep 23:43:59 23:48:03 76° 146° (SE) 23:52:09 435.950
DX 1 23 Sep 23:45:19 23:47:21 13° 38° (NE) 23:49:23 434.975-435.025
PRISM 23 Sep 23:48:58 23:52:31 28° 94° (E) 23:56:04 437.425
SO-50 23 Sep 23:49:20 23:53:12 27° 234° (SW) 23:57:05 436.795
ISS 23 Sep 23:54:51 23:56:32 13° 163° (SSE) 23:58:12 437.550
STRAND 1 23 Sep 23:59:14 00:03:18 24° 314° (NW) 00:07:22 437.568
AIST 2D 24 Sep 00:03:11 00:04:42 12° 84° (E) 00:06:13 435.315
SPROUT 24 Sep 00:07:35 00:11:28 36° 59° (ENE) 00:15:24 437.525
PCSat 24 Sep 00:08:53 00:14:14 59° 229° (SW) 00:19:33 145.827
Max Valier Satellite 24 Sep 00:09:10 00:11:21 15° 274° (W) 00:13:32 145.860
VELOX 1 24 Sep 00:11:11 00:15:09 34° 57° (ENE) 00:19:07 145.980
AO-85 24 Sep 00:12:30 00:16:27 82° 332° (NNW) 00:20:38 145.980
FO-29 24 Sep 00:15:32 00:20:46 66° 295° (WNW) 00:26:25 435.910
50 SAT 24 Sep 00:17:14 00:19:01 14° 50° (NE) 00:20:48 437.505
LO-87 24 Sep 00:28:40 00:32:03 43° 260° (W) 00:35:30 145.935 - 145.965
nSIGHT-1 24 Sep 00:32:52 00:34:54 16° 172° (S) 00:36:57 .
UNISAT 6 24 Sep 00:33:11 00:37:51 83° 291° (WNW) 00:42:34 437.425
NANOSAT C BR1 24 Sep 00:35:36 00:37:30 13° 82° (E) 00:39:23 145.865
Tancredo 1 24 Sep 00:54:50 00:55:24 10° 193° (SSW) 00:55:59 437.200
TIGRISAT 24 Sep 00:56:52 01:01:27 62° 293° (WNW) 01:06:05 435.000
DUCHIFAT 1 24 Sep 01:03:05 01:06:05 18° 87° (E) 01:09:04 145.980
MOZHAYETS 4 24 Sep 01:05:56 01:07:08 11° 32° (NNE) 01:08:20
YUBILEINY 24 Sep 01:07:56 01:16:34 68° 265° (W) 01:25:12 435.215
UKube-1 24 Sep 01:11:09 01:14:53 29° 54° (NE) 01:18:37 .
BEESAT 3 24 Sep 01:14:05 01:18:02 47° 358° (N) 01:21:57 437.485
POLYITAN 1 24 Sep 01:17:07 01:20:48 27° 92° (E) 01:24:29 437.675
DX 1 24 Sep 01:18:31 01:22:36 42° 60° (ENE) 01:26:42 434.975-435.025
ESTCUBE 1 24 Sep 01:20:57 01:24:55 29° 267° (W) 01:28:54 437.505/2401.250
EO-79 24 Sep 01:21:15 01:25:01 29° 93° (E) 01:28:45 145.935-145.965
BEESAT 2 24 Sep 01:22:01 01:26:01 52° 348° (NNW) 01:30:02 435.950
PRISM 24 Sep 01:24:04 01:28:04 54° 295° (WNW) 01:32:02 437.425
ISS 24 Sep 01:29:57 01:32:08 17° 183° (S) 01:34:20 437.550
QB50P2 24 Sep 01:34:55 01:38:58 38° 97° (E) 01:42:59 145.880/145.840
AIST 2D 24 Sep 01:34:59 01:38:34 74° 105° (ESE) 01:42:05 435.315
ITUPSAT 1 24 Sep 01:37:01 01:40:01 17° 39° (NE) 01:43:02 437.325
BUGSAT 1 24 Sep 01:37:16 01:39:21 13° 83° (E) 01:41:25 437.445
STRAND 1 24 Sep 01:39:54 01:40:57 11° 337° (NNW) 01:41:59 437.568
SPROUT 24 Sep 01:43:13 01:47:20 47° 260° (W) 01:51:30 437.525
VELOX 1 24 Sep 01:47:10 01:51:29 54° 258° (WSW) 01:55:49 145.980
50 SAT 24 Sep 01:47:40 01:50:58 73° 71° (ENE) 01:54:18 437.505
PCSat 24 Sep 01:53:08 01:56:41 18° 251° (WSW) 02:00:13 145.827
AO-85 24 Sep 01:53:16 01:57:12 49° 357° (N) 02:01:23 145.980
FO-29 24 Sep 02:01:19 02:05:12 21° 317° (NW) 02:09:16 435.910
nSIGHT-1 24 Sep 02:08:28 02:10:24 15° 192° (SSW) 02:12:18 .
NANOSAT C BR1 24 Sep 02:09:52 02:14:07 60° 103° (ESE) 02:18:21 145.865
UNISAT 6 24 Sep 02:10:27 02:14:03 23° 310° (NW) 02:17:40 437.425
BEESAT 24 Sep 02:12:12 02:16:00 24° 48° (NE) 02:19:50 436.000
TIGRISAT 24 Sep 02:34:17 02:37:25 18° 315° (NW) 02:40:34 435.000
DUCHIFAT 1 24 Sep 02:38:05 02:42:23 89° 111° (ESE) 02:46:39 145.980
MOZHAYETS 4 24 Sep 02:39:00 02:43:02 30° 55° (NE) 02:47:06
UKube-1 24 Sep 02:46:24 02:50:41 64° 256° (WSW) 02:55:00 .
BEESAT 3 24 Sep 02:52:00 02:56:03 64° 21° (NNE) 03:00:02 437.485
POLYITAN 1 24 Sep 02:52:40 02:56:56 62° 294° (WNW) 03:01:11 437.675
DX 1 24 Sep 02:54:43 02:58:50 41° 261° (W) 03:02:59 434.975-435.025
Gurwin Techsat 1B 24 Sep 02:54:58 02:59:19 25° 88° (E) 03:03:39 435.225
EO-79 24 Sep 02:56:51 03:01:04 58° 295° (WNW) 03:05:17 145.935-145.965
M-CUBED/EXP-1 PRIME 24 Sep 02:58:48 03:02:00 35° 106° (ESE) 03:05:04 437.505
KKS-1 24 Sep 02:59:00 03:00:17 11° 33° (NNE) 03:01:33 437.445
BEESAT 2 24 Sep 03:00:15 03:04:16 52° 11° (NNE) 03:08:16 435.950
PRISM 24 Sep 03:00:20 03:02:36 15° 316° (NW) 03:04:51 437.425
YUBILEINY 24 Sep 03:05:26 03:11:53 24° 290° (WNW) 03:18:21 435.215
Oscar 19 24 Sep 03:05:59 03:10:46 36° 95° (E) 03:15:31 437.125/150
ISS 24 Sep 03:06:40 03:07:42 11° 203° (SSW) 03:08:43 437.550
CUBESAT XI-V 24 Sep 03:07:35 03:10:57 20° 46° (NE) 03:14:19 437.345
AIST 2D 24 Sep 03:08:45 03:11:24 20° 305° (NW) 03:14:01 435.315
QB50P2 24 Sep 03:10:46 03:14:51 44° 298° (WNW) 03:18:56 145.880/145.840
BUGSAT 1 24 Sep 03:11:22 03:15:32 65° 104° (ESE) 03:19:44 437.445
ITUPSAT 1 24 Sep 03:12:20 03:16:57 50° 61° (ENE) 03:21:38 437.325
50 SAT 24 Sep 03:21:45 03:23:53 16° 270° (W) 03:26:03 437.505
VELOX 1 24 Sep 03:27:25 03:28:57 12° 279° (W) 03:30:30 145.980
AO-85 24 Sep 03:33:56 03:38:03 65° 20° (NNE) 03:42:27 145.980
O/OREOS (USA 219) 24 Sep 03:43:41 03:47:39 31° 111° (ESE) 03:51:40 437.305
NANOSAT C BR1 24 Sep 03:45:54 03:49:37 30° 304° (NW) 03:53:21 145.865
BEESAT 24 Sep 03:48:28 03:53:16 85° 72° (ENE) 03:58:06 436.000
ITAMSAT 1 24 Sep 04:12:42 04:15:48 16° 82° (E) 04:18:55 435.822/435.867
DUCHIFAT 1 24 Sep 04:14:18 04:17:37 22° 309° (NW) 04:20:54 145.980
MOZHAYETS 4 24 Sep 04:15:18 04:19:56 68° 256° (WSW) 04:24:36
UKube-1 24 Sep 04:25:27 04:27:35 13° 277° (W) 04:29:44 .
RS-15 24 Sep 04:26:25 04:31:42 14° 86° (E) 04:36:58 29.354- 29.394
AO-7 24 Sep 04:28:37 04:35:39 29° 88° (E) 04:42:38 .
POLYITAN 1 24 Sep 04:29:15 04:32:02 17° 315° (NW) 04:34:48 437.675
BEESAT 3 24 Sep 04:29:41 04:33:35 47° 223° (SW) 04:37:25 437.485
KKS-1 24 Sep 04:31:46 04:35:42 32° 56° (NE) 04:39:40 437.445
M-CUBED/EXP-1 PRIME 24 Sep 04:33:17 04:36:31 35° 308° (NW) 04:39:34 437.505
EO-79 24 Sep 04:33:29 04:36:06 16° 315° (NW) 04:38:44 145.935-145.965
Gurwin Techsat 1B 24 Sep 04:34:36 04:39:58 87° 291° (WNW) 04:45:18 435.225
BEESAT 2 24 Sep 04:38:08 04:42:14 77° 214° (SW) 04:46:18 435.950
CUBESAT XI-V 24 Sep 04:42:59 04:47:40 69° 68° (ENE) 04:52:22 437.345
Oscar 19 24 Sep 04:45:17 04:50:24 59° 297° (WNW) 04:55:28 437.125/150
BUGSAT 1 24 Sep 04:47:04 04:50:39 28° 305° (NW) 04:54:15 437.445
QB50P2 24 Sep 04:47:42 04:49:44 13° 320° (NW) 04:51:47 145.880/145.840
ITUPSAT 1 24 Sep 04:50:28 04:54:58 39° 263° (W) 04:59:30 437.325
STRAND 1 24 Sep 04:53:23 04:55:09 12° 26° (NNE) 04:56:55 437.568
STARS 24 Sep 04:54:45 04:58:25 27° 53° (NE) 05:02:06 437.465
AO-85 24 Sep 05:14:22 05:18:28 51° 222° (SW) 05:22:52 145.980
O/OREOS (USA 219) 24 Sep 05:22:17 05:26:48 68° 313° (NW) 05:31:24 437.305
BEESAT 24 Sep 05:27:55 05:31:40 23° 271° (W) 05:35:27 436.000
DOVE 4 24 Sep 05:48:13 05:49:44 12° 81° (E) 05:51:17 437.250
ITAMSAT 1 24 Sep 05:51:11 05:56:22 62° 104° (ESE) 06:01:32 435.822/435.867
MOZHAYETS 4 24 Sep 05:55:12 05:57:59 16° 277° (W) 06:00:47
KKS-1 24 Sep 06:07:44 06:12:06 59° 257° (WSW) 06:16:30 437.445
BEESAT 3 24 Sep 06:08:36 06:10:18 12° 244° (WSW) 06:12:00 437.485
M-CUBED/EXP-1 PRIME 24 Sep 06:09:05 06:10:06 11° 330° (NNW) 06:11:06 437.505
Gurwin Techsat 1B 24 Sep 06:15:00 06:19:24 27° 313° (NW) 06:23:49 435.225
BEESAT 2 24 Sep 06:16:18 06:19:30 22° 236° (SW) 06:22:40 435.950
AO-7 24 Sep 06:21:22 06:29:44 80° 112° (ESE) 06:38:04 .
CUBESAT XI-V 24 Sep 06:21:27 06:25:28 27° 269° (W) 06:29:30 437.345
Oscar 19 24 Sep 06:25:13 06:28:54 20° 319° (NW) 06:32:34 437.125/150
STRAND 1 24 Sep 06:28:37 06:32:54 28° 49° (NE) 06:37:13 437.568
RS-15 24 Sep 06:29:25 06:40:28 42° 114° (ESE) 06:51:25 29.354- 29.394
STARS 24 Sep 06:30:05 06:34:26 73° 253° (WSW) 06:38:51 437.465
AO-85 24 Sep 06:55:43 06:58:08 15° 242° (WSW) 07:00:38 145.980
NUDT-PHONESAT 24 Sep 06:58:07 06:59:20 11° 82° (E) 07:00:32 437.300
XW-2C 24 Sep 06:58:15 07:00:29 15° 85° (E) 07:02:42 145.795 - 145.815
HO-68 24 Sep 07:01:22 07:04:00 12° 71° (ENE) 07:06:38 435.675
O/OREOS (USA 219) 24 Sep 07:03:04 07:06:59 27° 337° (NNW) 07:10:57 437.305
LilacSat-2 24 Sep 07:11:00 07:13:51 19° 89° (E) 07:16:40 437.200
FO-29 24 Sep 07:11:24 07:14:36 17° 36° (NE) 07:17:48 435.910
DOVE 4 24 Sep 07:24:14 07:28:23 58° 102° (ESE) 07:32:38 437.250
KAITUO 1B 24 Sep 07:26:36 07:29:24 19° 89° (E) 07:32:11 145.475/437.950
ITAMSAT 1 24 Sep 07:30:55 07:35:41 37° 306° (NW) 07:40:27 435.822/435.867
CUTE-I 24 Sep 07:44:09 07:48:56 32° 93° (E) 07:53:42 437.470
KKS-1 24 Sep 07:47:39 07:49:38 13° 278° (W) 07:51:37 437.445
CUTE 1.7 + AOD 2 24 Sep 07:48:02 07:50:09 13° 82° (E) 07:52:17 437.475
Gurwin Techsat 1B 24 Sep 07:55:56 07:57:52 12° 336° (NNW) 07:59:47 435.225
XW-2D 24 Sep 07:57:42 08:01:24 43° 99° (E) 08:05:02 145.860 - 145.880
STRAND 1 24 Sep 08:06:32 08:11:40 86° 252° (WSW) 08:16:50 437.568
STARS 24 Sep 08:08:56 08:11:35 16° 275° (W) 08:14:15 437.465
XW-2F 24 Sep 08:09:26 08:13:12 50° 100° (E) 08:16:54 145.980 - 146.000
XW-2B 24 Sep 08:10:03 08:13:50 53° 101° (E) 08:17:35 145.730 - 145.750
AO-7 24 Sep 08:14:24 08:22:10 46° 318° (NW) 08:29:55 .
CUBEBUG 2 24 Sep 08:24:00 08:27:21 19° 86° (E) 08:30:43 437.445
UWE-3 24 Sep 08:29:46 08:32:23 15° 81° (E) 08:34:59 435.000/436.395/437.385
NUDT-PHONESAT 24 Sep 08:30:15 08:34:00 62° 102° (ESE) 08:37:42 437.300
UNISAT 6 24 Sep 08:30:43 08:33:36 17° 44° (NE) 08:36:33 437.425
XW-2C 24 Sep 08:31:27 08:35:20 82° 106° (ESE) 08:39:09 145.795 - 145.815
XW-2A 24 Sep 08:33:46 08:35:23 13° 85° (E) 08:37:00 145.665 - 145.685
RS-15 24 Sep 08:39:24 08:51:46 82° 142° (SE) 09:03:56 29.354- 29.394
O/OREOS (USA 219) 24 Sep 08:44:16 08:47:47 21° 2° (N) 08:51:18 437.305
LilacSat-2 24 Sep 08:44:43 08:48:36 75° 291° (WNW) 08:52:26 437.200
HO-68 24 Sep 08:47:10 08:53:57 41° 96° (E) 09:00:41 435.675
SEEDS 24 Sep 08:53:13 08:56:53 28° 92° (E) 09:00:31 437.485
TIGRISAT 24 Sep 08:53:32 08:56:52 21° 48° (NE) 09:00:17 435.000
FO-29 24 Sep 08:53:37 08:58:44 48° 60° (ENE) 09:03:42 435.910
KAITUO 1B 24 Sep 09:00:03 09:03:51 72° 290° (WNW) 09:07:35 145.475/437.950
DOVE 4 24 Sep 09:02:18 09:05:56 29° 303° (WNW) 09:09:39 437.250
Oscar 11 24 Sep 09:11:01 09:12:54 12° 81° (E) 09:14:45 .
ITAMSAT 1 24 Sep 09:11:10 09:13:58 15° 328° (NNW) 09:16:46 435.822/435.867
AO-73 24 Sep 09:12:02 09:15:06 17° 84° (E) 09:18:11 145.935
AAUSAT CUBESAT 2 24 Sep 09:13:39 09:17:00 23° 90° (E) 09:20:19 437.432
PRISM 24 Sep 09:13:50 09:16:44 19° 49° (NE) 09:19:38 437.425
ZACube-1 24 Sep 09:15:12 09:18:35 20° 86° (E) 09:21:57 437.345
CUTE 1.7 + AOD 2 24 Sep 09:22:36 09:26:52 65° 103° (ESE) 09:31:05 437.475
CUTE-I 24 Sep 09:24:06 09:29:25 68° 295° (WNW) 09:34:43 437.470
XW-2D 24 Sep 09:32:02 09:35:32 33° 299° (WNW) 09:38:58 145.860 - 145.880
XW-2F 24 Sep 09:43:50 09:47:11 29° 301° (WNW) 09:50:29 145.980 - 146.000
XW-2B 24 Sep 09:44:32 09:47:51 28° 302° (WNW) 09:51:09 145.730 - 145.750
